"Pseudo-MPEC" for C071Z12

Created 2019 Feb 13 5:18:33 UT using Find_Orb

Click here for an explanation of pseudo-MPECs

 
 Astrometry: 
     C071Z12  C2019 02 04?/r@u,sunj-v1_\ToQ5\,[2hBJ.#T$BcQ8]i3QAstrometrylW8hF52
     C071Z12  C2019 02 042]Go^i?GlMKhj^(:N;E@s^b;6g87B$t8Ljw;cDb7oP'Li0fq%ekxF52
     C071Z12  C2019 02 04*=1%U]I,R2PnIredacted;FE+Lh;l_@WPs[]gNXMYu88*Oa7(sgvF52
     C071Z12  C2019 02 11.35432 10 49 27.29 +08 35 56.3    ~2B9X 21.6 GVNEOCPG96
     C071Z12  C2019 02 11.35996 10 49 29.50 +08 36 15.4    ~2B9X 21.0 GVNEOCPG96
     C071Z12  C2019 02 11.36558 10 49 31.76 +08 36 35.3    ~2B9X 21.3 GVNEOCPG96
     C071Z12  C2019 02 11w_qq,D,D1Z9mQQ+5'FL/tn_q55S)R*B/!9oFE91ZoJ'F3\]3bl-0V06
     C071Z12  C2019 02 11M;%6qs+=y(RnSZo/GQlZm8h$wF$r2aE'f[x_@oXsx0h+D]:kh`L[V06
     C071Z12  C2019 02 11m$l.E',*VuTM=9KTS=BmCXk7K@Qih2G4@clicklQr\mmjt1)Fe6=V06
     C071Z12  C2019 02 11Eo(h7:jKZ6A;g9Q5-Bcr%/7SyfMN=MwFo4:_9Ov[j=tA,[=pSCYkV06
     C071Z12  C2019 02 12@DS=jH+^by38Z#/Ty62C9EhR+3hereE29e0l]TnB8VALnU)$0(@EV06
     C071Z12  C2019 02 127S6#lU38lA,iYc0_1fi5Pq/*po[/!GljoFy\^l#E[6.Evse?cojLV06
     C071Z12  C2019 02 12\Ji7n^7mtv_Qutg]t=V96?/'lBhQlehpTYdlpWfF==Ak^$eV[YlTV06
     C071Z12  C2019 02 126;SX1a7uS-Sfor?TJ6O;OT[+i:Qw\Yx@(f0DthU[Y+5A^.ObE$WtV06
     C071Z12 IC2019 02 12yBCw=='J7JYs)d.Jpyd;XBij4FugyqdP4jmpn+@(X#l@(I6[3R9/L01
     C071Z12 KC2019 02 12s)j]YY(OP1IXC%c.Nj;,]K[Ao3KB,.2DAELHtV3w5W$n@2BtV]:.L01
     C071Z12 KC2019 02 13\Ifk1,9`bL]Q]explanation;E$(gx^%YRguBEJ]x``dfQPrD65KL01

Station data:
(F52) Pan-STARRS 2, Haleakala  (N20.707384 W156.255910)  US/Hawaii.
(G96) Mt. Lemmon Survey  (N32.442754 W110.788720)  US/Arizona.  Observers B.
   M. Africano, E. J. Christensen, G. A. Farneth, D. C. Fuls, A. R. Gibbs, A.
   D. Grauer, H. Groeller, J. A. Johnson, R. A. Kowalski, S. M. Larson, G. J.
   Leonard, R. L. Seaman, F. C. Shelly. 1.5-m reflector + 10K CCD.
(L01) Višnjan Observatory, Tičan  (N45.290900 E13.749300)  Croatia.
   Observers K. Korlević, E. Pettarin. Measurer E. Pettarin. 1.0-m f/2.9
   reflector + CCD.
(V06) Catalina Sky Survey-Kuiper  (N32.416847 W110.732550)  US/Arizona.
   Observers B. M. Africano, E. J. Christensen, G. A. Farneth, D. C. Fuls, A.
   R. Gibbs, A. D. Grauer, H. Groeller, J. A. Johnson, R. A. Kowalski, S. M.
   Larson, G. J. Leonard, R. L. Seaman, F. C. Shelly. 1.55-m reflector + CCD.

Orbital elements:  C071Z12
   Perihelion 2019 Apr 9.952184 +/- 0.0416 TT = 22:51:08 (JD 2458583.452184)
Epoch 2019 Feb 13.0 TT = JDT 2458527.5   Earth MOID: 0.0270   Ma: 0.0241
M 322.88414513 +/- 0.13             (J2000 ecliptic)          AutoNEOCP
n   0.66334952 +/- 0.002            Peri.   68.66358 +/- 0.0030
a   1.30209028 +/- 0.00262          Node   142.63428 +/- 0.0056
e   0.3092223 +/- 0.00167           Incl.    6.08188 +/- 0.028
P   1.49/542.69d           H 26.3   G  0.15   U  8.6  
q 0.89945480 +/- 0.00037    Q 1.70472577 +/- 0.00561
From 17 observations 2019 Feb. 4-13; mean residual 0".32
Residuals in arcseconds: 
190204 F52  .03+  .03+    190211 V06  .21-  .38-    190212 V06  .09+  .21+    
190204 F52  .06-  .08-    190211 V06  1.2+  .37-    190212 V06  .11-  .31+    
190204 F52  .03+  .06+    190211 V06  .54-  .16-    190212 L01  .09-  .33-    
190211 G96  .17+  .24-    190211 V06  .15-  .12+    190212 L01  .23+  .30-    
190211 G96  .34-  .25-    190212 V06  .02-  .14+    190213 L01  .15-  .34+    
190211 G96  .01-  .62+    190212 V06  .06+  .34+    

Ephemerides (geocentric):
Date (UTC) HH   RA              Dec         delta   r     elong  mag " sig PA
---- -- -- --  -------------   -----------  ------ ------ -----  --- ---- ---
2019 02 13 05  11 04 57.342   +10 34 50.26  .06325 1.0470 160.2 21.4 .405 154
2019 02 13 06  11 05 21.171   +10 37 49.86  .06306 1.0468 160.2 21.4 .411 153
2019 02 13 07  11 05 45.145   +10 40 50.45  .06287 1.0466 160.1 21.4 .417 153
2019 02 13 08  11 06 09.264   +10 43 52.01  .06268 1.0464 160.1 21.3 .423 152
2019 02 13 09  11 06 33.531   +10 46 54.57  .06250 1.0462 160.0 21.3 .430 151
2019 02 13 10  11 06 57.946   +10 49 58.11  .06231 1.0461 160.0 21.3 .436 150
2019 02 13 11  11 07 22.511   +10 53 02.64  .06212 1.0459 159.9 21.3 .443 150
2019 02 13 12  11 07 47.226   +10 56 08.18  .06194 1.0457 159.9 21.3 .450 149
2019 02 13 13  11 08 12.093   +10 59 14.73  .06175 1.0455 159.8 21.3 .457 148
2019 02 13 14  11 08 37.114   +11 02 22.29  .06156 1.0453 159.8 21.3 .464 147
2019 02 13 15  11 09 02.289   +11 05 30.86  .06138 1.0451 159.7 21.3 .471 147
2019 02 13 16  11 09 27.619   +11 08 40.46  .06119 1.0449 159.7 21.3 .478 146
2019 02 13 17  11 09 53.107   +11 11 51.08  .06101 1.0447 159.6 21.3 .486 145
2019 02 13 18  11 10 18.754   +11 15 02.74  .06082 1.0446 159.6 21.3 .493 145
2019 02 13 19  11 10 44.560   +11 18 15.44  .06064 1.0444 159.5 21.3 .501 144
2019 02 13 20  11 11 10.527   +11 21 29.18  .06045 1.0442 159.5 21.3 .509 143
2019 02 13 21  11 11 36.656   +11 24 43.96  .06027 1.0440 159.4 21.3 .517 142
2019 02 13 22  11 12 02.949   +11 27 59.81  .06009 1.0438 159.3 21.3 .525 142
2019 02 13 23  11 12 29.407   +11 31 16.71  .05990 1.0436 159.3 21.3 .533 141
2019 02 14 00  11 12 56.032   +11 34 34.67  .05972 1.0434 159.2 21.3 .541 141
2019 02 14 01  11 13 22.825   +11 37 53.71  .05954 1.0433 159.2 21.3 .550 140
2019 02 14 02  11 13 49.787   +11 41 13.82  .05936 1.0431 159.1 21.3 .558 139
2019 02 14 03  11 14 16.919   +11 44 35.01  .05918 1.0429 159.0 21.2 .567 139
2019 02 14 04  11 14 44.224   +11 47 57.28  .05899 1.0427 159.0 21.2 .576 138
2019 02 14 05  11 15 11.702   +11 51 20.65  .05881 1.0425 158.9 21.2 .585 137
2019 02 14 06  11 15 39.355   +11 54 45.11  .05863 1.0423 158.8 21.2 .594 137
2019 02 14 07  11 16 07.185   +11 58 10.67  .05845 1.0421 158.8 21.2 .603 136
2019 02 14 08  11 16 35.193   +12 01 37.33  .05827 1.0420 158.7 21.2 .613 136
2019 02 14 09  11 17 03.380   +12 05 05.11  .05809 1.0418 158.6 21.2 .622 135
2019 02 14 10  11 17 31.748   +12 08 34.00  .05791 1.0416 158.6 21.2 .632 134
2019 02 14 11  11 18 00.298   +12 12 04.01  .05773 1.0414 158.5 21.2 .642 134
2019 02 14 12  11 18 29.033   +12 15 35.15  .05755 1.0412 158.4 21.2 .652 133
2019 02 14 13  11 18 57.953   +12 19 07.42  .05738 1.0410 158.3 21.2 .662 133
2019 02 14 14  11 19 27.060   +12 22 40.83  .05720 1.0408 158.3 21.2 .672 132
2019 02 14 15  11 19 56.355   +12 26 15.37  .05702 1.0407 158.2 21.2 .683 132
2019 02 14 16  11 20 25.842   +12 29 51.06  .05684 1.0405 158.1 21.2 .693 131
2019 02 14 17  11 20 55.519   +12 33 27.91  .05667 1.0403 158.0 21.2 .704 130
2019 02 14 18  11 21 25.391   +12 37 05.90  .05649 1.0401 158.0 21.2 .715 130
2019 02 14 19  11 21 55.457   +12 40 45.06  .05631 1.0399 157.9 21.2 .726 129
2019 02 14 20  11 22 25.721   +12 44 25.38  .05614 1.0397 157.8 21.2 .738 129
2019 02 14 21  11 22 56.182   +12 48 06.87  .05596 1.0396 157.7 21.2 .749 128
2019 02 14 22  11 23 26.844   +12 51 49.53  .05579 1.0394 157.6 21.2 .761 128
2019 02 14 23  11 23 57.707   +12 55 33.37  .05561 1.0392 157.6 21.2 .773 127
2019 02 15 00  11 24 28.774   +12 59 18.40  .05544 1.0390 157.5 21.1 .785 127
2019 02 15 01  11 25 00.046   +13 03 04.61  .05526 1.0388 157.4 21.1 .797 126
2019 02 15 02  11 25 31.526   +13 06 52.01  .05509 1.0386 157.3 21.1 .809 126
2019 02 15 03  11 26 03.213   +13 10 40.61  .05492 1.0385 157.2 21.1 .822 125
2019 02 15 04  11 26 35.111   +13 14 30.41  .05474 1.0383 157.1 21.1 .834 125